Regional Weather Roundup
Issued by NWS

Home | Current Version | Previous Version | Graphics & Text | Print | Product List | Glossary On
Versions: 1 2 3 4 5 6 7 8 9 10 11 12 13 14 15 16 17 18 19 20 21 22 23 24 25 26 27 28 29 30 31 32 33 34 35 36 37 38 39 40 41 42 43 44 45 46 47 48 49 50
000
ASUS43 KTOP 262308
RWRKS

WEATHER ROUNDUP FOR KANSAS
NATIONAL WEATHER SERVICE GOODLAND KS
600 PM CDT THU APR 26 2018

NOTE:  "FAIR" INDICATES FEW OR NO CLOUDS BELOW 12,000 FEET WITH NO
SIGNIFICANT WEATHER AND/OR OBSTRUCTIONS TO VISIBILITY.

KSZ001>006-013>018-027>032-041>047-270000-
NORTHWEST KANSAS

CITY           SKY/WX    TMP DP  RH WIND       PRES   REMARKS
GOODLAND       MOSUNNY   62  27  26 N18G30    30.17R
HAYS           MOSUNNY   67  37  33 N23G30    30.05R
HILL CITY        N/A    N/A N/A N/A MISG      30.10R
RUSSELL        PTSUNNY   67  39  35 N20G31    30.02S
$$

KSZ061>065-074>080-084>089-270000-
SOUTHWEST KANSAS

CITY           SKY/WX    TMP DP  RH WIND       PRES   REMARKS
DODGE CITY     CLOUDY    64  38  38 N24G36    30.06R
ELKHART        MOSUNNY   65  35  31 N25G32    30.12R
GARDEN CITY    SUNNY     63  35  35 NE23G32   30.10R
GREAT BEND     CLOUDY    67  43  41 N25       30.03R
LIBERAL        PTSUNNY   65  40  39 N24G36    30.09R
PRATT          CLOUDY    67  38  34 N5        30.02S
$$

KSZ066>073-081>083-090>101-270000-
SOUTHEAST KANSAS

CITY           SKY/WX    TMP DP  RH WIND       PRES   REMARKS
CHANUTE        MOSUNNY   67  48  50 VRB5      29.98S
COFFEYVILLE    MOSUNNY   65  48  54 CALM      29.98S
HUTCHINSON     MOSUNNY   71  42  35 VRB6      29.99F
MEDICINE LODGE   N/A     66  43  43 N5        30.01S
NEWTON         MOSUNNY   67  44  43 NW9       30.00S
PARSONS        MOSUNNY   67  48  50 VRB3      29.99S
WICHITA INTL   PTSUNNY   66  44  45 NW9       30.00S
WICHITA JABRA  CLOUDY    65  43  44 NW9       30.00S
WICHITA MCCONL CLOUDY    65  38  37 N12       30.00S
WINFIELD       PTSUNNY   67  46  47 NW6       30.00F
$$

KSZ007>012-019>026-033>040-048>060-102>105-270000-
NORTHEAST KANSAS

CITY           SKY/WX    TMP DP  RH WIND       PRES   REMARKS
CONCORDIA      SUNNY     68  39  34 N22G33    30.00S
EMPORIA        MOSUNNY   66  40  38 NW8       29.97S
LAWRENCE       SUNNY     70  42  36 NW13      29.95F
MANHATTAN      SUNNY     72  44  36 VRB7      29.96F
MARYSVILLE     SUNNY     68  43  40 N20G25    29.97S
OLATHE IND     MOSUNNY   67  46  47 NW7       29.96S
OLATHE EXE     MOSUNNY   66  47  50 N9        29.95S
SALINA         MOSUNNY   72  43  35 N17       29.98S
TOPEKA BILLARD SUNNY     70  40  33 NW7       29.95F
TOPEKA FORBES  SUNNY     68  42  38 NW7       29.95F
$$



USA.gov is the U.S. government's official web portal to all federal, state and local government web resources and services.